AD7L Weather Reports


time (UTC)temp
F
wind
direction
speed
knots
gust
knots
rain 1hr
in
rain 24hr
in
rain mn
in
humidity
%
barometer
mb
20260503212704 89 48 0.0 1.7 0.00 0.00 0.00 41 1012.5
20260503210703 89 48 0.9 2.6 0.00 0.00 0.00 40 1012.6
20260503205704 88 48 0.0 2.6 0.00 0.00 0.00 42 1012.7
20260503204704 88 48 0.9 2.6 0.00 0.00 0.00 41 1012.8
20260503203704 88 48 0.9 1.7 0.00 0.00 0.00 40 1012.9
20260503202704 88 48 0.0 2.6 0.00 0.00 0.00 42 1013.1
20260503201704 87 48 0.0 2.6 0.00 0.00 0.00 42 1013.2
20260503200704 87 48 0.0 1.7 0.00 0.00 0.00 43 1013.2
20260503195704 87 48 0.0 2.6 0.00 0.00 0.00 40 1013.3
20260503194703 87 48 0.0 1.7 0.00 0.00 0.00 43 1013.3
20260503193703 86 48 0.0 0.9 0.00 0.00 0.00 43 1013.3
20260503192704 86 48 0.0 1.7 0.00 0.00 0.00 43 1013.4
20260503191704 85 48 0.0 1.7 0.00 0.00 0.00 44 1013.5
20260503190704 84 48 0.9 1.7 0.00 0.00 0.00 45 1013.6
20260503185704 83 48 0.9 2.6 0.00 0.00 0.00 48 1013.6
20260503184704 81 48 0.9 2.6 0.00 0.00 0.00 48 1013.6
20260503183704 80 48 0.0 2.6 0.00 0.00 0.00 51 1013.7
20260503182704 78 48 0.9 2.6 0.00 0.00 0.00 51 1013.7
20260503175703 73 48 0.9 2.6 0.00 0.00 0.00 58 1013.7
20260503174704 71 48 1.7 2.6 0.00 0.00 0.00 62 1013.7
20260503173704 69 48 1.7 4.3 0.00 0.00 0.00 63 1013.7
20260503172703 67 47 1.7 2.6 0.00 0.00 0.00 66 1013.7
20260503171703 66 47 1.7 2.6 0.00 0.00 0.00 67 1013.7
20260503170703 66 47 1.7 4.3 0.00 0.00 0.00 70 1013.6
20260503150704 61 45 1.7 2.6 0.00 0.00 0.00 78 1013.7
20260503130704 60 45 1.7 2.6 0.00 0.00 0.00 76 1013.2
20260503110704 61 45 1.7 2.6 0.00 0.00 0.00 74 1013.4
20260503080703 61 46 0.9 2.6 0.00 0.00 0.00 75 1014.1
20260503070704 62 46 1.7 2.6 0.00 0.00 0.00 75 1014.4
20260503054704 63 324 0.0 0.9 0.00 0.00 0.00 76 1014.4
20260503053704 63 47 0.0 1.7 0.00 0.00 0.00 76 1014.4
20260503052704 63 47 1.7 2.6 0.00 0.00 0.00 76 1014.4
20260503050704 64 48 1.7 2.6 0.00 0.00 0.00 74 1014.3
20260503045704 64 44 1.7 2.6 0.00 0.00 0.00 75 1014.3
20260503043704 62 45 1.7 2.6 0.00 0.00 0.00 78 1014.2
20260503042704 62 45 1.7 1.7 0.00 0.00 0.00 78 1014.4
20260503041704 62 55 0.9 1.7 0.00 0.00 0.00 78 1014.5
20260503040703 63 55 0.9 0.9 0.00 0.00 0.00 77 1014.5
20260503035703 63 55 0.0 0.9 0.00 0.00 0.00 77 1014.3
20260503034703 63 348 0.0 0.9 0.00 0.00 0.00 77 1014.2
20260503033704 62 326 0.0 0.9 0.00 0.00 0.00 78 1014.1
20260503032704 62 314 0.0 0.9 0.00 0.00 0.00 79 1014.1
20260503030704 61 314 0.0 0.0 0.00 0.00 0.00 80 1014.2
20260503025704 60 314 0.0 7.0 0.00 0.00 0.00 82 1014.4
20260503023704 59 174 2.6 13.9 0.00 0.00 0.00 84 1014.2
20260503021704 61 194 4.3 12.2 0.00 0.00 0.00 83 1014.5
20260503020704 62 185 2.6 11.3 0.00 0.00 0.00 82 1014.5
20260503014704 63 196 0.0 1.7 0.00 0.00 0.00 81 1013.7
20260503013704 64 206 0.0 0.9 0.00 0.00 0.00 80 1013.7
20260503012704 65 206 0.0 1.7 0.00 0.00 0.00 76 1013.6
20260503011704 65 209 0.0 1.7 0.00 0.00 0.00 79 1013.7
20260503010704 66 191 0.0 0.9 0.00 0.00 0.00 78 1013.8
20260503005704 67 170 0.0 0.9 0.00 0.00 0.00 76 1013.7
20260503004703 68 341 0.0 0.9 0.00 0.00 0.00 72 1013.5
20260503003704 68 2 0.0 0.0 0.00 0.00 0.00 72 1013.3
20260503002704 68 2 0.0 0.0 0.00 0.00 0.00 72 1013.6
20260503001703 68 2 0.0 0.0 0.00 0.00 0.00 73 1013.5
20260503000704 68 2 0.0 0.9 0.00 0.00 0.00 70 1013.6
20260502235704 68 316 0.0 0.9 0.00 0.00 0.00 70 1013.4
20260502234704 68 349 0.0 0.9 0.00 0.00 0.00 68 1013.7
20260502233703 69 16 0.0 0.0 0.00 0.00 0.00 70 1013.9
20260502231704 69 16 0.0 0.0 0.00 0.00 0.00 69 1014.2
20260502225704 69 16 0.0 0.0 0.00 0.00 0.00 67 1014.4
20260502224705 69 16 0.0 0.9 0.00 0.00 0.00 68 1014.3
20260502223704 69 16 0.0 0.9 0.00 0.00 0.00 70 1014.5
20260502222703 68 16 0.0 0.0 0.00 0.00 0.00 70 1014.6
20260502221704 68 16 0.0 0.0 0.00 0.00 0.00 70 1014.6
20260502220704 68 16 0.0 0.0 0.00 0.00 0.00 70 1014.8
20260502215704 69 16 0.0 0.0 0.00 0.00 0.00 69 1015.0
20260502214704 69 16 0.0 0.0 0.00 0.00 0.00 67 1015.0
20260502213704 70 16 0.0 0.0 0.00 0.00 0.00 67 1015.0